Tracking 19638 objects as of 19-Apr-2019
HD Live streaming from Space Station
objects crossing your sky now

THORAD DELTA 1 DEB

Track THORAD DELTA 1 DEB now!
10-day predictions


NORAD ID: 17728
Int'l Code: 1974-089EX
Perigee: 1,450.3 km
Apogee: 1,622.1 km
Inclination: 101.6 °
Period: 116.6 minutes
Semi major axis: 7907 km
RCS: 0.0286 m2 (small)
Launch date: November 15, 1974
Source: United States (US)
Launch site: AIR FORCE WESTERN TEST RANGE (AFWTR)

Note: This is SATELLITE DEBRIS
aabbcc
Your satellite tracking list
Your tracking list is empty




NASA's NSSDC Master Catalog

Two Line Element Set (TLE):
1 17728U 74089EX  19106.74880617 +.00000057 +00000-0 +76912-3 0  9991
2 17728 101.5643 030.3598 0108663 135.8713 252.9841 12.34725563539429
Source of the keplerian elements: AFSPC